[[{"header":{"parameterUnit":"m.s-1","parameterCategory":1,"la1":30.2991,"la2":30.254,"lo1":-89.0895,"lo2":-89.0444,"dy":0.0017,"dx":0.0017,"nx":28,"ny":28,"refTime":"2023-09-21T03:00:00:Z","depth":0,"parameterNumber":2,"parameterNumberName":"U-component_of_WINDS"},"data":[0,0,0,0,0,0,0,0,0,0,0,0,0,0,0,0,0,0,0,0,0,0,0,0,0,0,0,0,0,0,0,0,0,0,0,0,0,0,0,0,0,0,0,0,0,0,0,0,0,0,0,0,0,0,0,0,0,0,-6.6635,-6.6635,0,-6.663,-6.663,-6.663,-6.6402,-6.6396,-6.639,-6.6384,-6.6381,-6.6387,-6.6392,0,0,0,0,0,0,0,0,0,0,0,0,0,-6.6448,-6.6453,-6.6635,-6.6635,-6.6635,-6.663,-6.663,-6.663,-6.6403,-6.6395,-6.6388,-6.6381,-6.638,-6.6386,-6.6393,0,0,0,0,0,0,0,0,0,0,0,0,0,-6.6495,-6.6454,-6.6635,-6.6521,-6.6511,-6.663,-6.663,-6.663,-6.6404,-6.6395,-6.6386,-6.6378,-6.6377,-6.6385,-6.6393,-6.6623,0,0,-6.6418,-6.6422,0,0,0,0,0,0,0,0,-6.6493,-6.6502,-6.6538,-6.6529,-6.6518,-6.6507,-6.6563,-6.6628,-6.6406,-6.6445,-6.6384,-6.6374,-6.6431,-6.6434,-6.6453,-6.6622,-6.6622,-6.6419,-6.6424,-6.6428,-6.643,0,0,0,0,0,0,0,-6.649,-6.6501,-6.6633,-6.6539,-6.6526,-6.647,-6.6467,-6.6574,-6.6488,-6.6441,-6.6424,-6.6427,-6.6423,-6.6445,-6.6451,-6.6622,-6.6419,-6.6426,-6.6431,-6.6435,-6.6977,-6.6986,0,0,0,0,0,0,-6.6502,-6.65,-6.6633,-6.6633,-6.6483,-6.6481,-6.6477,-6.652,-6.6486,-6.6472,-6.6434,-6.6416,-6.6436,-6.6442,-6.645,-6.6714,-6.6428,-6.6435,-6.644,-6.6968,-6.6979,-6.699,0,0,0,0,0,0,-6.6499,-6.6516,-6.6634,-6.6562,-6.6573,-6.6493,-6.6543,-6.6524,-6.6546,-6.6481,-6.6465,-6.6472,-6.6429,-6.6438,-6.658,-6.6711,-6.6439,-6.6446,-6.6957,-6.6971,-6.6984,-6.7246,0,0,0,0,0,0,-6.6495,-6.6517,-6.6603,-6.6566,-6.6577,-6.6765,-6.6551,-6.6531,-6.656,-6.6536,-6.6512,-6.65,-6.6423,-6.657,-6.6589,-6.6717,-6.6453,-6.6945,-6.6963,-6.698,-6.7225,-6.7267,-6.7303,0,0,0,0,0,-6.6489,-6.6678,-6.6609,-6.6626,-6.6684,-6.6773,-6.678,-6.6686,-6.6572,-6.6658,-6.6616,-6.6501,-6.6694,-6.6586,-6.6606,-6.6739,-6.6936,-6.6958,-6.6979,-6.7207,-6.7259,-6.7302,0,0,0,0,0,0,-6.6734,-6.6671,-6.6593,-6.6776,-6.6782,-6.6734,-6.684,-6.6744,-6.6783,-6.6759,-6.6642,-6.6638,-6.6799,-6.6782,-6.6664,-6.6957,-6.6794,-6.6821,-6.6962,-6.701,-6.7048,-6.7048,-6.646,0,0,0,0,0,-6.6809,-6.6886,-6.6827,-6.6994,-6.7,-6.6921,-6.6956,-6.6883,-6.6885,-6.6886,-6.6854,-6.6861,-6.6922,-6.6965,-6.7018,-6.7222,-6.7212,-6.7323,-6.7362,-6.7394,-6.7418,-6.7522,-6.757,-6.706,-6.706,-6.7059,0,0,-6.6965,-6.694,-6.6996,-6.7042,-6.7038,-6.7121,-6.6924,-6.702,-6.708,-6.6901,-6.7032,-6.701,-6.7009,-6.7182,-6.7257,-6.7174,-6.7557,-6.7421,-6.7448,-6.7454,-6.7549,-6.7598,-6.7641,-6.7074,-6.7072,-6.7069,0,0,-6.7291,-6.7281,-6.7417,-6.7417,-6.7412,-6.7357,-6.739,-6.7358,-6.7335,-6.7465,-6.7332,-6.7402,-6.7511,-6.7515,-6.7531,-6.7858,-6.7753,-6.7879,-6.8082,-6.8185,-6.8225,-6.826,-6.8375,-6.8418,-6.7903,-6.7903,-6.7904,0,-6.7486,-6.7604,-6.75,-6.7604,-6.7628,-6.7468,-6.7605,-6.7609,-6.7624,-6.7644,-6.755,-6.7682,-6.767,-6.7841,-6.7921,-6.794,-6.7974,-6.788,-6.8228,-6.8262,-6.8293,-6.8401,-6.8445,-6.7918,-6.7917,-6.7915,-6.7914,0,-6.7843,-6.7927,-6.8038,-6.8054,-6.809,-6.8211,-6.8124,-6.8173,-6.8098,-6.8053,-6.8187,-6.8167,-6.8212,-6.8248,-6.8176,-6.8409,-6.8357,-6.8248,-6.8082,-6.8359,-6.8458,-6.8499,-6.794,-6.7935,-6.793,-6.7927,0,0,-6.8324,-6.8278,-6.8321,-6.8325,-6.8307,-6.8371,-6.8484,-6.8527,-6.8571,-6.8586,-6.8677,-6.8772,-6.867,-6.8689,-6.8616,-6.8707,-6.8965,-6.8586,-6.8584,-6.8655,-6.9218,-6.93,-6.9349,-6.8895,-6.8903,-6.8909,-6.9218,0,-6.8637,-6.8826,-6.8735,-6.8935,-6.901,-6.8859,-6.8957,-6.8957,-6.8919,-6.8977,-6.8934,-6.9003,-6.8864,-6.8874,-6.8958,-6.8916,-6.9076,-6.8892,-6.8978,-6.8983,-6.8982,-6.9401,-6.9488,-6.978,-6.9256,-6.9263,-6.9268,0,-6.9029,-6.9058,-6.9266,-6.9232,-6.926,-6.935,-6.9381,-6.9439,-6.9436,-6.9401,-6.9423,-6.9327,-6.9435,-6.9272,-6.9418,-6.9296,-6.9325,-6.931,-6.9319,-6.9323,-6.9141,-6.9415,-6.9871,-6.9915,-6.9328,-6.9323,-6.9319,0,-6.9356,-6.9448,-6.9582,-6.9591,-6.9556,-6.9623,-6.9611,-6.9599,-6.963,-6.9658,-6.9677,-6.9718,-6.9741,-6.9774,-6.9693,-6.9581,-6.9851,-6.968,-6.9824,-6.9827,-6.9886,-6.9884,-7.0353,-6.9909,-6.9909,-6.9908,-6.9907,0,-6.9715,-6.9847,-6.9728,-6.9812,-6.9955,-6.9849,-6.9994,-6.9966,-6.9957,-7.0031,-6.9904,-6.9978,-6.9866,-6.9928,-6.9866,-6.9996,-7.0007,-6.9982,-6.9963,-6.9992,-6.9996,-7.0009,-6.9986,-6.9919,-6.9917,-6.9915,-6.9913,0,-7.0104,-7.003,-7.0167,-7.0122,-7.0114,-7.0222,-7.0183,-7.0258,-7.021,-7.0306,-7.0323,-7.0248,-7.0315,-7.0237,-7.0298,-7.0255,-7.0431,-7.0383,-7.0432,-7.0418,-7.0565,-7.0552,-7.1059,-7.1119,-7.0639,-7.0644,-7.0648,0,-7.0337,-7.0435,-7.04,-7.044,-7.0436,-7.0504,-7.0534,-7.0433,-7.047,-7.0473,-7.0548,-7.0604,-7.0642,-7.0756,-7.0707,-7.0753,-7.0704,-7.0878,-7.071,-7.0735,-7.0704,-7.0699,-7.0707,-7.0913,-7.0918,-7.0923,-7.0927,0,-7.0758,-7.0716,-7.0764,-7.0801,-7.084,-7.0864,-7.0878,-7.0919,-7.0814,-7.0862,-7.0928,-7.0958,-7.1019,-7.1075,-7.1107,-7.1095,-7.0995,-7.0981,-7.1016,-7.1046,-7.1069,-7.1056,-7.0524,-7.0969,-7.0965,-7.0962,-7.0959,-7.0958,-7.1075,-7.1154,-7.1141,-7.1199,-7.1198,-7.1214,-7.1282,-7.1241,-7.1294,-7.1334,-7.1272,-7.1354,-7.1347,-7.1379,-7.1379,-7.1442,-7.1367,-7.1419,-7.1431,-7.1445,-7.1467,-7.1061,-7.1447,-7.1446,-7.1445,-7.1444,-7.1443,0,-7.1487,-7.1471,-7.1525,-7.1548,-7.1594,-7.1493,-7.1503,-7.1548,-7.1622,-7.1623,-7.1663,-7.1739,-7.1792,-7.1748,-7.1792,-7.1851,-7.1806,-7.1866,-7.186,-7.1859,-7.1532,-7.1496,-7.1902,-7.1902,-7.1902,-7.1902,-7.1902,-7.1902,-7.1707,-7.1834,-7.1791,-7.1917,-7.1899,-7.1978,-7.1992,-7.2006,-7.2006,-7.2095,-7.2138,-7.2109,-7.2092,-7.2134,-7.2179,-7.2164,-7.2186,-7.2263,-7.2232,-7.1927,-7.1882,-7.1839,-7.1804,-7.2269,-7.2269,-7.2553,-7.2555,-7.2557]},{"header":{"parameterUnit":"m.s-1","parameterCategory":1,"la1":30.2991,"la2":30.254,"lo1":-89.0895,"lo2":-89.0444,"dy":0.0017,"dx":0.0017,"nx":28,"ny":28,"refTime":"2023-09-21T03:00:00:Z","depth":0,"parameterNumber":3,"parameterNumberName":"V-component_of_WINDS"},"data":[0,0,0,0,0,0,0,0,0,0,0,0,0,0,0,0,0,0,0,0,0,0,0,0,0,0,0,0,0,0,0,0,0,0,0,0,0,0,0,0,0,0,0,0,0,0,0,0,0,0,0,0,0,0,0,0,0,0,-1.4554,-1.4555,0,-1.4576,-1.4576,-1.4576,-1.4601,-1.4601,-1.4601,-1.4602,-1.4622,-1.4622,-1.4622,0,0,0,0,0,0,0,0,0,0,0,0,0,-1.4532,-1.4533,-1.4554,-1.4555,-1.4555,-1.4576,-1.4576,-1.4576,-1.46,-1.4601,-1.4601,-1.4602,-1.4622,-1.4622,-1.4622,0,0,0,0,0,0,0,0,0,0,0,0,0,-1.4546,-1.4533,-1.4554,-1.457,-1.4571,-1.4576,-1.4576,-1.4576,-1.46,-1.4601,-1.4601,-1.4602,-1.4622,-1.4622,-1.4622,-1.4613,0,0,-1.4623,-1.4623,0,0,0,0,0,0,0,0,-1.4546,-1.4547,-1.4567,-1.4569,-1.457,-1.4586,-1.4576,-1.4589,-1.46,-1.4589,-1.4602,-1.4602,-1.4609,-1.4611,-1.4613,-1.4614,-1.4615,-1.4623,-1.4623,-1.4623,-1.4623,0,0,0,0,0,0,0,-1.4545,-1.4546,-1.4563,-1.4567,-1.4569,-1.4575,-1.4577,-1.4578,-1.4596,-1.459,-1.4592,-1.4594,-1.461,-1.4613,-1.4614,-1.4615,-1.4623,-1.4623,-1.4623,-1.4624,-1.4608,-1.4607,0,0,0,0,0,0,-1.4542,-1.4546,-1.4562,-1.4564,-1.4559,-1.4574,-1.4577,-1.458,-1.4596,-1.4599,-1.4594,-1.4595,-1.4612,-1.4614,-1.4615,-1.4604,-1.4623,-1.4624,-1.4624,-1.4608,-1.4608,-1.4607,0,0,0,0,0,0,-1.4541,-1.4543,-1.4561,-1.4555,-1.4558,-1.4574,-1.4577,-1.4581,-1.4583,-1.4599,-1.4602,-1.4594,-1.4613,-1.4614,-1.4613,-1.4605,-1.4624,-1.4624,-1.4609,-1.4608,-1.4607,-1.4583,0,0,0,0,0,0,-1.454,-1.4543,-1.454,-1.4555,-1.4558,-1.456,-1.4577,-1.4581,-1.4584,-1.4586,-1.4599,-1.4602,-1.4613,-1.4612,-1.4613,-1.4606,-1.4624,-1.461,-1.4609,-1.4608,-1.4584,-1.4581,-1.4578,0,0,0,0,0,-1.4539,-1.4532,-1.454,-1.4541,-1.4555,-1.4559,-1.4561,-1.4575,-1.4583,-1.458,-1.459,-1.4601,-1.4606,-1.4612,-1.4613,-1.4606,-1.461,-1.4609,-1.4608,-1.4586,-1.4582,-1.4578,0,0,0,0,0,0,-1.4515,-1.4534,-1.4543,-1.454,-1.4548,-1.4563,-1.456,-1.4571,-1.4576,-1.4577,-1.4594,-1.4597,-1.4593,-1.4599,-1.4606,-1.4597,-1.461,-1.4609,-1.4593,-1.4589,-1.4586,-1.4584,-1.4625,0,0,0,0,0,-1.451,-1.4512,-1.4529,-1.4525,-1.4528,-1.4543,-1.4546,-1.4556,-1.4564,-1.4567,-1.4577,-1.4584,-1.4587,-1.4589,-1.4592,-1.4586,-1.4588,-1.4581,-1.4578,-1.4576,-1.4574,-1.4569,-1.4566,-1.4603,-1.4603,-1.4603,0,0,-1.4498,-1.4509,-1.4509,-1.452,-1.4527,-1.4528,-1.4546,-1.4547,-1.4548,-1.4567,-1.4566,-1.4574,-1.4583,-1.4578,-1.4577,-1.4584,-1.4564,-1.4574,-1.4572,-1.4571,-1.4568,-1.4564,-1.4561,-1.4602,-1.4602,-1.4602,0,0,-1.4477,-1.4486,-1.4483,-1.449,-1.4501,-1.4511,-1.451,-1.4524,-1.4529,-1.4529,-1.4543,-1.4544,-1.455,-1.4555,-1.4558,-1.4539,-1.4549,-1.454,-1.4524,-1.4519,-1.4516,-1.4514,-1.4505,-1.4502,-1.4538,-1.4538,-1.4538,0,-1.4461,-1.4464,-1.448,-1.448,-1.4483,-1.4502,-1.4498,-1.4504,-1.4515,-1.4517,-1.4525,-1.4531,-1.4538,-1.4535,-1.453,-1.4533,-1.4531,-1.4538,-1.4515,-1.4513,-1.4511,-1.4503,-1.45,-1.4537,-1.4537,-1.4537,-1.4537,0,-1.4443,-1.4445,-1.4441,-1.4452,-1.4455,-1.4453,-1.4468,-1.4469,-1.4479,-1.4488,-1.4486,-1.4496,-1.4501,-1.4501,-1.4511,-1.4499,-1.4502,-1.4513,-1.4525,-1.4506,-1.4498,-1.4496,-1.4535,-1.4535,-1.4536,-1.4536,0,0,-1.4407,-1.4426,-1.4424,-1.4429,-1.4442,-1.4443,-1.4441,-1.4447,-1.4447,-1.4454,-1.4452,-1.4456,-1.4465,-1.4469,-1.4479,-1.4476,-1.4457,-1.4486,-1.4487,-1.4479,-1.4443,-1.4434,-1.443,-1.4465,-1.4465,-1.4464,-1.4442,0,-1.4387,-1.4386,-1.44,-1.4394,-1.4395,-1.4413,-1.4411,-1.4419,-1.4427,-1.4428,-1.4437,-1.4439,-1.4452,-1.4454,-1.4451,-1.446,-1.445,-1.4462,-1.4462,-1.4462,-1.4457,-1.4427,-1.4417,-1.4396,-1.4439,-1.4439,-1.4438,0,-1.4364,-1.437,-1.4364,-1.4376,-1.4377,-1.4376,-1.4381,-1.4383,-1.4391,-1.4397,-1.4401,-1.4413,-1.4411,-1.4425,-1.4422,-1.443,-1.443,-1.4435,-1.4434,-1.4433,-1.4448,-1.4423,-1.4389,-1.4385,-1.4434,-1.4434,-1.4435,0,-1.4336,-1.4343,-1.434,-1.4343,-1.4358,-1.4356,-1.4362,-1.4371,-1.4373,-1.4378,-1.4379,-1.4384,-1.4385,-1.4388,-1.44,-1.4409,-1.4395,-1.441,-1.4399,-1.4399,-1.4394,-1.4394,-1.4358,-1.4397,-1.4398,-1.4398,-1.4398,0,-1.4312,-1.4307,-1.4327,-1.4325,-1.432,-1.4336,-1.4331,-1.4338,-1.4346,-1.4345,-1.4361,-1.436,-1.4377,-1.4377,-1.4386,-1.4381,-1.4383,-1.4387,-1.4389,-1.4384,-1.4384,-1.4384,-1.4385,-1.4397,-1.4397,-1.4397,-1.4397,0,-1.4279,-1.4293,-1.429,-1.4305,-1.4308,-1.4303,-1.4315,-1.4313,-1.4323,-1.4321,-1.4322,-1.4336,-1.4337,-1.435,-1.4354,-1.436,-1.4351,-1.4357,-1.4348,-1.4349,-1.4337,-1.4337,-1.4298,-1.4293,-1.4338,-1.4337,-1.4337,0,-1.4262,-1.4259,-1.4272,-1.4273,-1.4278,-1.4279,-1.4281,-1.4297,-1.4298,-1.4307,-1.4304,-1.4306,-1.4309,-1.431,-1.432,-1.4322,-1.4328,-1.4314,-1.4328,-1.4323,-1.4325,-1.4324,-1.4323,-1.431,-1.431,-1.4309,-1.4309,0,-1.4229,-1.4236,-1.4239,-1.4243,-1.4245,-1.425,-1.4255,-1.4255,-1.4271,-1.4272,-1.4273,-1.4275,-1.4279,-1.4281,-1.4285,-1.4291,-1.4302,-1.4305,-1.4302,-1.4296,-1.429,-1.4291,-1.4338,-1.4305,-1.4305,-1.4306,-1.4306,-1.4306,-1.4203,-1.42,-1.4209,-1.4211,-1.4217,-1.4221,-1.422,-1.4229,-1.423,-1.4235,-1.4244,-1.4243,-1.4251,-1.4258,-1.4262,-1.4261,-1.4268,-1.4265,-1.4264,-1.4262,-1.4259,-1.4292,-1.4263,-1.4263,-1.4263,-1.4263,-1.4263,0,-1.4169,-1.4176,-1.4177,-1.4184,-1.4185,-1.4197,-1.4203,-1.4203,-1.4203,-1.4209,-1.4211,-1.4212,-1.4214,-1.4224,-1.4226,-1.4224,-1.4229,-1.4224,-1.4223,-1.4224,-1.4253,-1.4255,-1.4219,-1.4219,-1.4219,-1.4219,-1.4219,-1.4219,-1.4152,-1.4147,-1.4155,-1.4153,-1.416,-1.416,-1.4162,-1.4166,-1.4171,-1.4171,-1.4172,-1.4179,-1.4187,-1.419,-1.4191,-1.4194,-1.4193,-1.4186,-1.419,-1.4218,-1.4222,-1.4226,-1.4227,-1.4186,-1.4186,-1.4161,-1.416,-1.416]}]]